TimeEST,TemperatureF,Dew PointF,Humidity,Sea Level PressureIn,VisibilityMPH,Wind Direction,Wind SpeedMPH,Gust SpeedMPH,PrecipitationIn,Events,Conditions,WindDirDegrees,DateUTC
12:00 AM,39.2,39.2,100,30.50,3.0,WSW,3.5,-,N/A,,Clear,250,2013-01-10 05:00:00
12:36 AM,37.4,37.4,100,30.51,1.8,WSW,3.5,-,N/A,,Clear,250,2013-01-10 05:36:00
12:49 AM,35.6,33.8,93,30.51,0.2,Calm,Calm,-,N/A,Fog,Fog,0,2013-01-10 05:49:00
12:50 AM,36.0,33.1,89,30.52,0.2,Calm,Calm,-,N/A,Fog,Fog,0,2013-01-10 05:50:00
1:50 AM,33.8,32.0,93,30.52,0.2,Calm,Calm,-,N/A,Fog,Fog,0,2013-01-10 06:50:00
1:53 AM,33.1,32.0,96,30.53,0.2,Calm,Calm,-,N/A,Fog,Fog,0,2013-01-10 06:53:00
2:12 AM,32.0,30.2,93,30.52,0.2,Calm,Calm,-,N/A,Fog,Fog,0,2013-01-10 07:12:00
2:29 AM,33.8,32.0,93,30.52,0.2,Calm,Calm,-,N/A,Fog,Fog,0,2013-01-10 07:29:00
2:53 AM,32.0,32.0,100,30.52,0.2,Calm,Calm,-,N/A,Fog,Fog,0,2013-01-10 07:53:00
3:00 AM,30.2,28.4,93,30.51,0.2,Calm,Calm,-,N/A,Fog,Light Freezing Fog,0,2013-01-10 08:00:00
3:14 AM,30.2,30.2,100,30.51,0.2,Calm,Calm,-,N/A,Fog,Light Freezing Fog,0,2013-01-10 08:14:00
3:53 AM,30.9,30.9,100,30.51,0.2,Calm,Calm,-,N/A,Fog,Light Freezing Fog,0,2013-01-10 08:53:00
4:49 AM,28.4,28.4,100,30.49,0.2,Calm,Calm,-,N/A,Fog,Light Freezing Fog,0,2013-01-10 09:49:00
4:53 AM,28.9,28.0,96,30.51,0.2,Calm,Calm,-,N/A,Fog,Light Freezing Fog,0,2013-01-10 09:53:00
5:10 AM,28.4,28.4,100,30.50,0.2,Calm,Calm,-,N/A,Fog,Light Freezing Fog,0,2013-01-10 10:10:00
5:18 AM,28.4,26.6,93,30.50,0.2,Calm,Calm,-,N/A,Fog,Light Freezing Fog,0,2013-01-10 10:18:00
5:53 AM,28.0,27.0,96,30.52,0.5,Calm,Calm,-,N/A,Fog,Light Freezing Fog,0,2013-01-10 10:53:00
6:48 AM,28.4,26.6,93,30.52,0.2,Calm,Calm,-,N/A,Fog,Light Freezing Fog,0,2013-01-10 11:48:00
6:53 AM,28.0,26.1,92,30.55,0.2,Calm,Calm,-,N/A,Fog,Light Freezing Fog,0,2013-01-10 11:53:00
7:53 AM,28.0,26.1,92,30.58,0.2,Calm,Calm,-,N/A,Fog,Light Freezing Fog,0,2013-01-10 12:53:00
8:16 AM,28.4,26.6,93,30.56,0.2,Calm,Calm,-,N/A,Fog,Light Freezing Fog,0,2013-01-10 13:16:00
8:37 AM,28.4,26.6,93,30.57,0.2,Calm,Calm,-,N/A,Fog,Light Freezing Fog,0,2013-01-10 13:37:00
8:53 AM,28.0,26.1,92,30.60,0.2,Calm,Calm,-,N/A,Fog,Light Freezing Fog,0,2013-01-10 13:53:00
9:17 AM,28.4,26.6,93,30.58,0.2,Calm,Calm,-,N/A,Fog,Light Freezing Fog,0,2013-01-10 14:17:00
9:53 AM,30.0,28.9,96,30.61,0.5,Calm,Calm,-,N/A,Fog,Light Freezing Fog,0,2013-01-10 14:53:00
10:30 AM,30.2,28.4,93,30.58,0.5,Calm,Calm,-,0.01,Fog,Light Freezing Fog,0,2013-01-10 15:30:00
10:37 AM,30.2,28.4,93,30.57,2.0,Calm,Calm,-,0.01,,Scattered Clouds,0,2013-01-10 15:37:00
10:53 AM,32.0,30.9,96,30.58,2.0,Calm,Calm,-,0.01,,Scattered Clouds,0,2013-01-10 15:53:00
12:28 PM,39.2,37.4,93,30.51,6.0,NE,5.8,-,N/A,,Mostly Cloudy,40,2013-01-10 17:28:00
12:53 PM,41.0,37.0,86,30.51,10.0,NNE,4.6,-,N/A,,Mostly Cloudy,30,2013-01-10 17:53:00
1:53 PM,43.0,37.9,82,30.48,10.0,Variable,3.5,-,N/A,,Mostly Cloudy,0,2013-01-10 18:53:00
3:53 PM,44.1,37.0,76,30.45,10.0,NNE,5.8,-,N/A,,Clear,20,2013-01-10 20:53:00
4:53 PM,43.0,36.0,76,30.42,10.0,NE,3.5,-,N/A,,Clear,40,2013-01-10 21:53:00
5:53 PM,43.0,35.1,74,30.41,10.0,Calm,Calm,-,N/A,,Clear,0,2013-01-10 22:53:00
6:53 PM,39.9,33.1,77,30.40,10.0,North,4.6,-,N/A,,Clear,10,2013-01-10 23:53:00
7:53 PM,41.0,33.1,73,30.37,10.0,NNE,5.8,-,N/A,,Clear,20,2013-01-11 00:53:00
8:53 PM,39.9,33.1,77,30.35,10.0,NNE,3.5,-,N/A,,Clear,30,2013-01-11 01:53:00
9:53 PM,39.0,33.1,79,30.33,10.0,Calm,Calm,-,N/A,,Clear,0,2013-01-11 02:53:00
10:53 PM,39.9,33.1,77,30.30,10.0,Calm,Calm,-,N/A,,Clear,0,2013-01-11 03:53:00
11:53 PM,39.9,33.1,77,30.26,10.0,Calm,Calm,-,N/A,,Clear,0,2013-01-11 04:53:00